Regional Weather Roundup
Issued by NWS

Home | Current Version | Previous Version | Text Only | Print | Product List | Glossary On
Versions: 1 2 3 4 5 6 7 8 9 10 11 12 13 14 15 16 17 18 19 20 21 22 23 24 25 26 27 28 29 30 31 32 33 34 35 36 37 38 39 40 41 42 43 44 45 46 47 48 49 50
000
ASUS43 KTOP 282208
RWRKS

WEATHER ROUNDUP FOR KANSAS
NATIONAL WEATHER SERVICE GOODLAND KS
400 PM CST SAT FEB 28 2015

NOTE:  "FAIR" INDICATES FEW OR NO CLOUDS BELOW 12,000 FEET WITH NO
SIGNIFICANT WEATHER AND/OR OBSTRUCTIONS TO VISIBILITY.

KSZ001>006-013>018-027>032-041>047-282300-
NORTHWEST KANSAS

CITY           SKY/WX    TMP DP  RH WIND       PRES   REMARKS
GOODLAND       LGT SNOW  19  13  77 S9        30.08S
HAYS           CLOUDY    21   9  58 S9        30.24S
HILL CITY      CLOUDY    21  13  71 SE9       30.22S
RUSSELL        CLOUDY    21  15  78 S9        30.25S
$$

KSZ061>065-074>080-084>089-282300-
SOUTHWEST KANSAS

CITY           SKY/WX    TMP DP  RH WIND       PRES   REMARKS
DODGE CITY     CLOUDY    20  13  74 SE10      30.18R WCI   9
ELKHART          N/A     25  17  72 S8          N/A
GARDEN CITY    CLOUDY    20  15  81 S9        30.14S
GREAT BEND     CLOUDY    19  12  73 SE9       30.26S
LIBERAL        CLOUDY    23  16  74 SE10      30.14S WCI  12
PRATT          CLOUDY    23  16  74 SE8       30.26S
$$

KSZ066>073-081>083-090>101-282300-
SOUTHEAST KANSAS

CITY           SKY/WX    TMP DP  RH WIND       PRES   REMARKS
CHANUTE        LGT SNOW  23  21  92 E6        30.38F FOG
COFFEYVILLE    LGT SNOW  25  22  88 NE7       30.39S VSB 1
HUTCHINSON     CLOUDY    22  15  75 SE7       30.30S
MEDICINE LODGE   N/A     22  16  78 S6        30.28S
NEWTON         CLOUDY    21  12  68 SE5       30.32S
PARSONS        LGT SNOW  26  22  84 MISG      30.38F VSB 1
WICHITA INTL   CLOUDY    22  16  78 S6        30.31F HAZE
WICHITA JABRA  CLOUDY    22  16  78 SE3       30.31F
WICHITA MCCONL MOSUNNY   22  17  80 SE6       30.31F
WINFIELD       LGT SNOW  24  21  88 E5        30.34F FOG
$$

KSZ007>012-019>026-033>040-048>060-102>105-282300-
NORTHEAST KANSAS

CITY           SKY/WX    TMP DP  RH WIND       PRES   REMARKS
CONCORDIA      CLOUDY    21  16  81 S9        30.31F
EMPORIA        CLOUDY    22  17  81 SE6       30.34F
LAWRENCE       LGT SNOW  23  18  81 SE7       30.40F
MANHATTAN      LGT SNOW  24  18  77 S8        30.36F
MARYSVILLE     LGT SNOW  23  18  80 SE6       30.35F
OLATHE IND     CLOUDY    22  17  81 SE8       30.39F
OLATHE EXE     CLOUDY    22  18  85 SE6       30.38F
SALINA         CLOUDY    23  15  71 S6        30.34F
TOPEKA BILLARD CLOUDY    24  17  74 SE5       30.40S
TOPEKA FORBES  FLURRIES  25  18  74 SE6       30.37F
$$


USA.gov is the U.S. government's official web portal to all federal, state and local government web resources and services.